Storm Lake, IA

8:19 AM CST on February 12, 2016 (GMT -0600)
Storm Lake Municipal

Weather History for KSLB - January, 2014

Change the Weather History Date:

Tuesday, January 14, 2014

  Actual Average (WUND) Record (WUND)
Temperature  
Mean Temperature 28 °F -  
Max Temperature 41 °F - - (-1)
Min Temperature 15 °F - - (-1)
Degree Days  
Heating Degree Days 37    
Moisture  
Dew Point 17 °F    
Average Humidity 70    
Maximum Humidity 86    
Minimum Humidity 50    
Precipitation  
Precipitation 0.00 in - - ()
Sea Level Pressure  
Sea Level Pressure 29.90 in    
Wind  
Wind Speed 24 mph (NW)    
Max Wind Speed 40 mph    
Max Gust Speed 54 mph    
Visibility 9 miles    
Events Snow    
Averages and records for this station are not official NWS values.
T = Trace of Precipitation, MM = Missing Value Source: NWS Daily Summary

Daily Weather History Graph

Daily Weather History Graph

Search for Another Location

Airport or City:

Trip Planner

Search our weather history database for the weather conditions in past years. The results will help you decide how hot, cold, wet, or windy it might be!

Date:

Astronomy

Jan. 14, 2014 Rise Set
Actual Time 7:48 AM CST 5:11 PM CST
Civil Twilight 7:17 AM CST 5:43 PM CST
Nautical Twilight 6:42 AM CST 6:17 PM CST
Astronomical Twilight 6:08 AM CST 6:51 PM CST
Moon 4:18 PM CST (1/14) 6:23 AM CST (1/14)
Length of Visible Light 10h 25m
Length of Day
9h 23m
Waxing Gibbous, 98% of the Moon is Illuminated
Jan 14
Waxing Gibbous
Jan 15
Full
Jan 23
Last Quarter
Jan 30
New
Feb 6
First Quarter

Hourly Weather History & Observations

Time (CST) Temp. Windchill Dew Point Humidity Pressure Visibility Wind Dir Wind Speed Gust Speed Precip Events Conditions
12:15 AM 37.4 °F 29.8 °F 28.4 °F 70% 29.52 in 10.0 mi WSW 11.5 mph - N/A   Mostly Cloudy
12:35 AM 37.4 °F 30.8 °F 30.2 °F 75% 29.52 in 10.0 mi WSW 9.2 mph - N/A   Overcast
12:55 AM 37.4 °F 28.5 °F 32.0 °F 81% 29.51 in 10.0 mi WSW 15.0 mph - N/A   Overcast
1:15 AM 37.4 °F 27.2 °F 32.0 °F 81% 29.50 in 10.0 mi WSW 19.6 mph - N/A   Scattered Clouds
1:35 AM 41.0 °F 31.4 °F 33.8 °F 76% 29.51 in 10.0 mi West 21.9 mph - N/A   Mostly Cloudy
1:55 AM 41.0 °F 30.7 °F 33.8 °F 76% 29.52 in 10.0 mi West 25.3 mph 33.4 mph N/A   Overcast
2:15 AM 41.0 °F 30.0 °F 33.8 °F 76% 29.53 in 10.0 mi WNW 28.8 mph 34.5 mph N/A   Overcast
2:35 AM 41.0 °F 30.2 °F 33.8 °F 76% 29.55 in 10.0 mi WNW 27.6 mph 39.1 mph N/A   Overcast
2:55 AM 39.2 °F 27.4 °F 33.8 °F 81% 29.57 in 10.0 mi NW 29.9 mph 43.7 mph N/A   Overcast
3:15 AM 39.2 °F 27.0 °F 33.8 °F 81% 29.59 in 10.0 mi NW 32.2 mph 43.7 mph N/A   Overcast
3:35 AM 37.4 °F 25.6 °F 32.0 °F 81% 29.61 in 10.0 mi NW 26.5 mph 44.9 mph N/A   Overcast
3:55 AM 35.6 °F 21.3 °F 28.4 °F 75% 29.62 in 10.0 mi NW 36.8 mph 54.1 mph N/A   Mostly Cloudy
4:15 AM 33.8 °F 18.3 °F 28.4 °F 81% 29.63 in 10.0 mi NW 40.3 mph 51.8 mph N/A   Mostly Cloudy
4:35 AM 33.8 °F 20.1 °F 28.4 °F 81% 29.66 in 10.0 mi NW 29.9 mph 38.0 mph N/A   Mostly Cloudy
4:55 AM 33.8 °F 19.6 °F 26.6 °F 75% 29.67 in 10.0 mi NW 32.2 mph 42.6 mph N/A   Mostly Cloudy
5:15 AM 32.0 °F 17.4 °F 26.6 °F 80% 29.70 in 10.0 mi NW 31.1 mph 38.0 mph N/A   Mostly Cloudy
5:35 AM 32.0 °F 17.4 °F 24.8 °F 75% 29.72 in 10.0 mi NW 31.1 mph 48.3 mph N/A   Mostly Cloudy
5:55 AM 30.2 °F 13.9 °F 23.0 °F 75% 29.73 in 10.0 mi NNW 36.8 mph 48.3 mph N/A   Mostly Cloudy
6:15 AM 30.2 °F 14.3 °F 21.2 °F 69% 29.75 in 10.0 mi NW 34.5 mph 50.6 mph N/A   Overcast
6:35 AM 28.4 °F 12.0 °F 21.2 °F 74% 29.78 in 10.0 mi NNW 33.4 mph 43.7 mph N/A   Overcast
6:55 AM 26.6 °F 9.8 °F 19.4 °F 74% 29.80 in 10.0 mi NW 32.2 mph 44.9 mph N/A   Mostly Cloudy
7:15 AM 26.6 °F 11.1 °F 19.4 °F 74% 29.81 in 10.0 mi NW 26.5 mph 40.3 mph N/A   Partly Cloudy
7:35 AM 26.6 °F 12.7 °F 19.4 °F 74% 29.82 in 10.0 mi NW 20.7 mph 34.5 mph N/A   Mostly Cloudy
7:55 AM 26.6 °F 13.1 °F 19.4 °F 74% 29.83 in 10.0 mi NW 19.6 mph 31.1 mph N/A   Overcast
8:15 AM 26.6 °F 10.6 °F 19.4 °F 74% 29.84 in 10.0 mi NW 28.8 mph 39.1 mph N/A   Overcast
8:35 AM 28.4 °F 15.1 °F 21.2 °F 74% 29.85 in 9.0 mi NW 20.7 mph 32.2 mph N/A   Overcast
8:55 AM 26.6 °F 10.3 °F 15.8 °F 64% 29.87 in 10.0 mi NW 29.9 mph 39.1 mph N/A   Overcast
9:15 AM 26.6 °F 10.8 °F 15.8 °F 64% 29.88 in 10.0 mi WNW 27.6 mph 36.8 mph N/A   Overcast
9:35 AM 26.6 °F 11.1 °F 15.8 °F 64% 29.90 in 10.0 mi NW 26.5 mph 39.1 mph N/A   Overcast
9:55 AM 24.8 °F 7.6 °F 15.8 °F 69% 29.91 in 8.0 mi NW 31.1 mph 44.9 mph N/A Snow Light Snow
10:15 AM 23.0 °F 3.4 °F 10.4 °F 59% 29.92 in 3.0 mi NW 39.1 mph 49.5 mph N/A Snow Light Snow
10:35 AM 24.8 °F 6.6 °F 10.4 °F 54% 29.94 in 10.0 mi NW 35.7 mph 49.5 mph N/A   Overcast
10:55 AM 24.8 °F 7.3 °F 8.6 °F 50% 29.95 in 10.0 mi NW 32.2 mph 43.7 mph N/A   Overcast
11:15 AM 24.8 °F 7.3 °F 8.6 °F 50% 29.96 in 10.0 mi NW 32.2 mph 39.1 mph N/A   Overcast
11:35 AM 24.8 °F 7.9 °F 8.6 °F 50% 29.95 in 10.0 mi NW 29.9 mph 48.3 mph N/A   Overcast
11:55 AM 24.8 °F 7.3 °F 8.6 °F 50% 29.94 in 10.0 mi NW 32.2 mph 49.5 mph N/A   Overcast
12:15 PM 24.8 °F 6.8 °F 10.4 °F 54% 29.94 in 10.0 mi NW 34.5 mph 46.0 mph N/A   Overcast
12:35 PM 24.8 °F 5.7 °F 8.6 °F 50% 29.94 in 10.0 mi NW 40.3 mph 49.5 mph N/A   Overcast
12:55 PM 24.8 °F 7.3 °F 10.4 °F 54% 29.95 in 10.0 mi NW 32.2 mph 47.2 mph N/A   Overcast
1:15 PM 24.8 °F 7.9 °F 12.2 °F 59% 29.96 in 9.0 mi NW 29.9 mph 42.6 mph N/A   Overcast
1:35 PM 24.8 °F 7.3 °F 14.0 °F 64% 29.97 in 5.0 mi NNW 32.2 mph 43.7 mph N/A Snow Light Snow
1:55 PM 23.0 °F 4.6 °F 12.2 °F 63% 29.98 in 9.0 mi NW 33.4 mph 42.6 mph N/A   Mostly Cloudy
2:15 PM 23.0 °F 4.6 °F 12.2 °F 63% 29.99 in 9.0 mi NNW 33.4 mph 42.6 mph N/A   Mostly Cloudy
2:35 PM 23.0 °F 5.1 °F 12.2 °F 63% 30.00 in 6.0 mi NW 31.1 mph 43.7 mph N/A   Haze
2:55 PM 23.0 °F 5.4 °F 10.4 °F 59% 30.02 in 9.0 mi NW 29.9 mph 42.6 mph N/A   Overcast
3:15 PM 23.0 °F 4.4 °F 10.4 °F 59% 30.03 in 10.0 mi NNW 34.5 mph 46.0 mph N/A   Overcast
3:35 PM 23.0 °F 4.6 °F 10.4 °F 59% 30.05 in 10.0 mi NW 33.4 mph 42.6 mph N/A   Overcast
3:55 PM 23.0 °F 6.0 °F 10.4 °F 59% 30.06 in 10.0 mi NNW 27.6 mph 42.6 mph N/A   Overcast
4:15 PM 23.0 °F 5.4 °F 8.6 °F 54% 30.07 in 10.0 mi NNW 29.9 mph 39.1 mph N/A   Overcast
4:35 PM 21.2 °F 3.9 °F 8.6 °F 58% 30.08 in 10.0 mi NW 26.5 mph 38.0 mph N/A   Overcast
4:55 PM 21.2 °F 5.6 °F 10.4 °F 63% 30.09 in 10.0 mi NNW 20.7 mph 29.9 mph N/A   Overcast
5:15 PM 21.2 °F 4.9 °F 10.4 °F 63% 30.09 in 10.0 mi NNW 23.0 mph 31.1 mph N/A   Overcast
5:35 PM 21.2 °F 6.4 °F 12.2 °F 68% 30.10 in 10.0 mi NNW 18.4 mph 27.6 mph N/A   Overcast
5:55 PM 19.4 °F 4.5 °F 14.0 °F 80% 30.10 in 2.0 mi NW 17.3 mph 28.8 mph N/A Snow Light Snow
6:15 PM 19.4 °F 3.6 °F 15.8 °F 86% 30.11 in 5.0 mi NW 19.6 mph - N/A Snow Light Snow
6:35 PM 19.4 °F 4.5 °F 14.0 °F 80% 30.11 in 10.0 mi NNW 17.3 mph 23.0 mph N/A Snow Light Snow
6:55 PM 19.4 °F 3.2 °F 12.2 °F 74% 30.12 in 9.0 mi NW 20.7 mph - N/A   Overcast
7:15 PM 19.4 °F 4.1 °F 12.2 °F 74% 30.12 in 10.0 mi NW 18.4 mph - N/A   Overcast
7:35 PM 19.4 °F 3.2 °F 10.4 °F 68% 30.12 in 10.0 mi NNW 20.7 mph 26.5 mph N/A   Overcast
7:55 PM 19.4 °F 4.1 °F 12.2 °F 74% 30.12 in 10.0 mi NNW 18.4 mph 24.2 mph N/A   Overcast
8:15 PM 19.4 °F 3.2 °F 12.2 °F 74% 30.12 in 10.0 mi NNW 20.7 mph - N/A   Overcast
8:35 PM 19.4 °F 4.5 °F 12.2 °F 74% 30.12 in 10.0 mi NNW 17.3 mph 23.0 mph N/A   Overcast
8:55 PM 19.4 °F 4.5 °F 12.2 °F 74% 30.12 in 10.0 mi NW 17.3 mph - N/A   Overcast
9:15 PM 19.4 °F 6.0 °F 12.2 °F 74% 30.13 in 9.0 mi NW 13.8 mph 19.6 mph N/A Snow Light Snow
9:35 PM 17.6 °F 2.7 °F 14.0 °F 86% 30.13 in 8.0 mi NW 16.1 mph - N/A Snow Light Snow
9:55 PM 17.6 °F 4.3 °F 14.0 °F 86% 30.12 in 1.8 mi NNW 12.7 mph 21.9 mph N/A Snow Light Snow
10:15 PM 17.6 °F 3.2 °F 12.2 °F 79% 30.13 in 8.0 mi NNW 15.0 mph - N/A Snow Light Snow
10:35 PM 17.6 °F 3.2 °F 10.4 °F 73% 30.13 in 10.0 mi North 15.0 mph - N/A   Overcast
10:55 PM 15.8 °F 0.9 °F 10.4 °F 79% 30.14 in 10.0 mi NNW 15.0 mph 20.7 mph N/A   Overcast
11:15 PM 15.8 °F 0.3 °F 8.6 °F 73% 30.14 in 10.0 mi North 16.1 mph - N/A   Overcast
11:35 PM 15.8 °F 2.1 °F 8.6 °F 73% 30.14 in 10.0 mi NNW 12.7 mph - N/A   Overcast
11:55 PM 15.8 °F -0.6 °F 6.8 °F 68% 30.14 in 10.0 mi NNW 18.4 mph - N/A   Overcast